WetterOnline ( https://www.wetteronline.de )

Wetter aktuell Vreden

Aktuelles Wetter: Ahaus (46m)

6-stündlich | Neueste Meldungen
Ortszeit Temperatur Wetter
Mo, 26.02. 7:00 4.6° C leichter Regen
Mo, 26.02. 1:00 3.6° C bedeckt
So, 25.02. 19:00 4.8° C bewölkt
So, 25.02. 13:00 7.7° C bewölkt
So, 25.02. 7:00 5.3° C bedeckt
So, 25.02. 1:00 4.5° C bewölkt
Sa, 24.02. 19:00 4.6° C leicht bewölkt
Sa, 24.02. 13:00 5.5° C Regen
Ortszeit Temperatur Wetter
Mo, 26.02. 11:00 5.4° C Sprühregen
Mo, 26.02. 10:30 5.2° C leichter Regen
Mo, 26.02. 10:20 5.2° C leichter Regen
Mo, 26.02. 10:10 5.2° C leichter Regen
Mo, 26.02. 10:00 5.2° C leichter Regen
Mo, 26.02. 9:50 5.2° C leichter Regen
Mo, 26.02. 9:30 5.3° C leichter Regen
Mo, 26.02. 9:00 5.1° C leichter Regen
Mo, 26.02. 8:30 5.1° C leichter Regen
Mo, 26.02. 8:00 4.9° C leichter Regen
Ortszeit Relative Feuchte Sichtweite
Mo, 26.02. 7:00 82% 35 km
Mo, 26.02. 1:00 87% 45 km
So, 25.02. 19:00 93% 40 km
So, 25.02. 13:00 77% 60 km
So, 25.02. 7:00 83% >70 km
So, 25.02. 1:00 79% 65 km
Sa, 24.02. 19:00 80% 65 km
Sa, 24.02. 13:00 89% >70 km
Ortszeit Relative Feuchte Sichtweite
Mo, 26.02. 11:00 82% 30 km
Mo, 26.02. 10:30 82% 30 km
Mo, 26.02. 10:20 82% -
Mo, 26.02. 10:10 83% -
Mo, 26.02. 10:00 82% 23 km
Mo, 26.02. 9:50 82% -
Mo, 26.02. 9:30 80% 35 km
Mo, 26.02. 9:00 80% 35 km
Mo, 26.02. 8:30 79% 35 km
Mo, 26.02. 8:00 79% 35 km
Ortszeit Niederschlagsmenge Niederschlagsart
Mo, 26.02. 7:00 0.1 l/m2 in 12 Std. Regen
Mo, 26.02. 1:00 0.0 l/m2 in 6 Std. -
So, 25.02. 19:00 3 l/m2 in 12 Std. Regen
So, 25.02. 13:00 0.7 l/m2 in 6 Std. Regen
So, 25.02. 7:00 0.3 l/m2 in 12 Std. Regen
So, 25.02. 1:00 0.0 l/m2 in 6 Std. -
Sa, 24.02. 19:00 2 l/m2 in 12 Std. Regen
Sa, 24.02. 13:00 2 l/m2 in 6 Std. Regen
Ortszeit Niederschlagsmenge Niederschlagsart
Mo, 26.02. 11:00 keine Meldung -
Mo, 26.02. 10:30 0.1 l/m2 in 30 Min -
Mo, 26.02. 10:20 keine Meldung -
Mo, 26.02. 10:10 keine Meldung -
Mo, 26.02. 10:00 0.2 l/m2 in 1 Std. Regen
Mo, 26.02. 9:50 keine Meldung -
Mo, 26.02. 9:30 <0.05 l/m2 in 30 Min -
Mo, 26.02. 9:00 <0.05 l/m2 in 1 Std. Regen
Mo, 26.02. 8:30 <0.05 l/m2 in 30 Min -
Mo, 26.02. 8:00 <0.05 l/m2 in 1 Std. Regen
Ortszeit Stärke Spitze Richtung
km/h Bft. km/h Grad Sektor
Mo, 26.02. 7:00 14 3 25 50° NO
Mo, 26.02. 1:00 11 2 18 60° NO
So, 25.02. 19:00 6 1 33 80° O
So, 25.02. 13:00 19 3 31 200° S
So, 25.02. 7:00 17 3 31 190° S
So, 25.02. 1:00 13 3 30 160° S
Sa, 24.02. 19:00 13 3 37 210° SW
Sa, 24.02. 13:00 20 4 39 210° SW
Ortszeit Stärke Spitze Richtung
km/h Bft. km/h Grad Sektor
Mo, 26.02. 11:00 20 4 35 40° NO
Mo, 26.02. 10:30 20 4 33 40° NO
Mo, 26.02. 10:20 20 4 - 40° NO
Mo, 26.02. 10:10 18 3 - 40° NO
Mo, 26.02. 10:00 19 3 33 30° NO
Mo, 26.02. 9:50 19 3 - 30° NO
Mo, 26.02. 9:30 17 3 33 40° NO
Mo, 26.02. 9:00 19 3 33 40° NO
Mo, 26.02. 8:30 19 3 33 40° NO
Mo, 26.02. 8:00 17 3 28 50° NO
Ortszeit Untergrenze Bedeckung Gattung
total tief tief mittel hoch
Mo, 26.02. 7:00 1350 m 7/8 7/8 - - -
Mo, 26.02. 1:00 5100 m 8/8 8/8 - - -
So, 25.02. 19:00 1500 m 7/8 6/8 - - -
So, 25.02. 13:00 570 m 7/8 7/8 - - -
So, 25.02. 7:00 480 m 8/8 8/8 - - -
So, 25.02. 1:00 1500 m 8/8 7/8 - - -
Sa, 24.02. 19:00 2700 m 2/8 2/8 - - -
Sa, 24.02. 13:00 360 m 8/8 8/8 - - -
Ortszeit Bedeckungsgrad in Achtel und Wolkenuntergrenze
Mo, 26.02. 11:00 1(1260m) 5(1500m) 8(2100m)
Mo, 26.02. 10:30 5(1350m) 6(1500m)
Mo, 26.02. 10:20 5(1350m) 6(1500m)
Mo, 26.02. 10:10 5
Mo, 26.02. 10:00 6(870m) 8(1140m)
Mo, 26.02. 9:50 6(870m) 8(1140m)
Mo, 26.02. 9:30 1(870m) 7(1380m) 8(1500m)
Mo, 26.02. 9:00 8(1380m)
Mo, 26.02. 8:30 5(1380m)
Mo, 26.02. 8:00 1(1320m)
Ortszeit Luftdruck NN (hPa) Tendenz (hPa in 3 Std.)
Mo, 26.02. 7:00 1002 + 1,2
Mo, 26.02. 1:00 1001 - 0,3
So, 25.02. 19:00 1001 - 0,2
So, 25.02. 13:00 1002 0,0
So, 25.02. 7:00 1001 + 0,1
So, 25.02. 1:00 1002 - 0,7
Sa, 24.02. 19:00 1002 + 1,7
Sa, 24.02. 13:00 1000 + 1,6
Ortszeit Luftdruck NN (hPa) Tendenz (hPa in 3 Std.)
Mo, 26.02. 11:00 1004 + 1,8
Mo, 26.02. 10:30 1004 + 1,6
Mo, 26.02. 10:20 1004 keine Meldung
Mo, 26.02. 10:10 1004 keine Meldung
Mo, 26.02. 10:00 1003 + 1,2
Mo, 26.02. 9:50 1003 keine Meldung
Mo, 26.02. 9:30 1003 + 1,2
Mo, 26.02. 9:00 1003 + 1,0
Mo, 26.02. 8:30 1003 + 1,2
Mo, 26.02. 8:00 1003 + 1,3
Ortszeit Schneehöhe (cm)
Mo, 26.02. 7:00 0
Mo, 26.02. 1:00 0
So, 25.02. 19:00 0
So, 25.02. 13:00 0
So, 25.02. 7:00 0
So, 25.02. 1:00 0
Sa, 24.02. 19:00 0
Sa, 24.02. 13:00 0
Ortszeit Schneehöhe (cm)
Mo, 26.02. 11:00 -
Mo, 26.02. 10:30 0
Mo, 26.02. 10:20 0
Mo, 26.02. 10:10 -
Mo, 26.02. 10:00 0
Mo, 26.02. 9:50 0
Mo, 26.02. 9:30 0
Mo, 26.02. 9:00 0
Mo, 26.02. 8:30 0
Mo, 26.02. 8:00 0
Link zu dieser Seite / Seite empfehlen

Das Wetter in ...